Beckley, WV

9:54 AM EDT on September 19, 2017 (GMT -0400)
Raleigh County Memorial

Weather History for KBKW - January, 2014

Change the Weather History Date:

Friday, January 24, 2014

  Actual Average Record
Temperature  
Mean Temperature 6 °F 31 °F  
Max Temperature 19 °F 40 °F 70 °F (1950)
Min Temperature -8 °F 23 °F -18 °F (1963)
Degree Days  
Heating Degree Days 59 34  
Month to date heating degree days 913 816  
Since 1 July heating degree days 2951 2909  
Cooling Degree Days 0 0  
Month to date cooling degree days 0 0  
Year to date cooling degree days 0 0  
Moisture  
Dew Point -9 °F    
Average Humidity 56    
Maximum Humidity 83    
Minimum Humidity 28    
Precipitation  
Precipitation T in 0.09 in 1.00 in (1910)
Month to date precipitation 4.56 2.18  
Year to date precipitation 4.56 2.18  
Snow  
Snow 0.20 in - - ()
Month to date snowfall 14.8  
Since 1 September snowfall 28.1  
Snow Depth 6.00 in    
Sea Level Pressure  
Sea Level Pressure 30.46 in    
Wind  
Wind Speed 9 mph (SW)    
Max Wind Speed 17 mph    
Max Gust Speed 23 mph    
Visibility 9 miles    
Events Snow    
T = Trace of Precipitation, MM = Missing Value Source: NWS Daily Summary

Daily Weather History Graph

Daily Weather History Graph

Search for Another Location

Airport or City:

Trip Planner

Search our weather history database for the weather conditions in past years. The results will help you decide how hot, cold, wet, or windy it might be!

Date:

Astronomy

Jan. 24, 2014 Rise Set
Actual Time 7:34 AM EST 5:39 PM EST
Civil Twilight 7:06 AM EST 6:07 PM EST
Nautical Twilight 6:34 AM EST 6:39 PM EST
Astronomical Twilight 6:03 AM EST 7:10 PM EST
Moon 1:01 AM EST (1/24) 11:55 AM EST (1/24)
Length of Visible Light 11h 01m
Length of Day
10h 04m
Last Quarter, 45% of the Moon is Illuminated
Jan 24
Last Quarter
Jan 30
New
Feb 6
First Quarter
Feb 14
Full
Feb 22
Last Quarter

Hourly Weather History & Observations

Time (EST) Temp. Windchill Dew Point Humidity Pressure Visibility Wind Dir Wind Speed Gust Speed Precip Events Conditions
12:51 AM -2.0 °F -12.2 °F -9.9 °F 69% 30.58 in 10.0 mi West 4.6 mph - N/A   Scattered Clouds
1:51 AM -2.0 °F -15.4 °F -9.0 °F 72% 30.59 in 9.0 mi West 6.9 mph - N/A   Overcast
2:51 AM -0.9 °F -16.4 °F -8.0 °F 72% 30.61 in 4.0 mi West 9.2 mph - 0.00 in Snow Light Snow
3:51 AM -2.0 °F -17.7 °F -9.0 °F 72% 30.62 in 5.0 mi West 9.2 mph - 0.00 in Snow Light Snow
4:23 AM -2.9 °F -17.7 °F -8.0 °F 79% 30.40 in 6.0 mi West 8.1 mph - 0.00 in   Haze
4:40 AM -2.9 °F -17.7 °F -8.0 °F 79% 30.40 in 4.0 mi West 8.1 mph - 0.00 in Snow Light Snow
4:51 AM -2.9 °F -18.8 °F -8.0 °F 79% 30.64 in 4.0 mi West 9.2 mph - 0.00 in Snow Light Snow
5:29 AM -4.0 °F -19.0 °F -9.0 °F 79% 30.40 in 5.0 mi West 8.1 mph - 0.00 in   Haze
5:51 AM -4.0 °F -12.4 °F -9.0 °F 79% 30.64 in 4.0 mi WSW 3.5 mph - 0.00 in   Haze
6:07 AM -4.0 °F - -9.9 °F 76% 30.40 in 10.0 mi Calm Calm - N/A   Overcast
6:31 AM -5.1 °F -13.6 °F -9.9 °F 80% 30.40 in 10.0 mi SW 3.5 mph - N/A   Mostly Cloudy
6:38 AM -5.1 °F -15.8 °F -11.0 °F 76% 30.40 in 10.0 mi SW 4.6 mph - N/A   Partly Cloudy
6:51 AM -6.0 °F -16.9 °F -11.0 °F 79% 30.66 in 10.0 mi SW 4.6 mph - N/A   Scattered Clouds
7:21 AM -6.0 °F -16.9 °F -11.9 °F 75% 30.41 in 10.0 mi SSW 4.6 mph - N/A   Mostly Cloudy
7:36 AM -7.1 °F -18.1 °F -11.9 °F 79% 30.41 in 10.0 mi South 4.6 mph - N/A   Scattered Clouds
7:51 AM -7.1 °F -18.1 °F -11.9 °F 79% 30.66 in 10.0 mi South 4.6 mph - N/A   Clear
8:51 AM -5.1 °F -17.6 °F -9.0 °F 83% 30.64 in 10.0 mi SSW 5.8 mph - N/A   Clear
9:51 AM -2.0 °F -13.9 °F -8.0 °F 76% 30.63 in 10.0 mi SW 5.8 mph - N/A   Clear
10:51 AM 3.0 °F -6.4 °F -7.1 °F 63% 30.61 in 10.0 mi SW 4.6 mph - N/A   Clear
11:51 AM 7.0 °F -4.5 °F -6.0 °F 55% 30.58 in 10.0 mi SW 6.9 mph - N/A   Clear
12:51 PM 9.0 °F -3.2 °F -6.0 °F 51% 30.54 in 10.0 mi SSW 8.1 mph - N/A   Clear
1:51 PM 12.0 °F -3.4 °F -6.0 °F 44% 30.50 in 10.0 mi WSW 13.8 mph 20.7 mph N/A   Clear
2:51 PM 12.9 °F -0.2 °F -7.1 °F 41% 30.44 in 10.0 mi WSW 10.4 mph - N/A   Clear
3:51 PM 15.1 °F 4.2 °F -5.1 °F 41% 30.38 in 10.0 mi SW 8.1 mph - N/A   Clear
4:51 PM 15.1 °F 1.1 °F -5.1 °F 41% 30.35 in 10.0 mi SSW 12.7 mph - N/A   Clear
5:51 PM 14.0 °F 2.9 °F -5.1 °F 43% 30.34 in 10.0 mi SSW 8.1 mph - N/A   Clear
6:51 PM 14.0 °F 2.9 °F -6.0 °F 41% 30.31 in 10.0 mi South 8.1 mph - N/A   Clear
7:51 PM 14.0 °F 0.5 °F -6.0 °F 41% 30.27 in 10.0 mi SSW 11.5 mph - N/A   Clear
8:51 PM 16.0 °F 1.7 °F -9.9 °F 31% 30.21 in 10.0 mi SSW 13.8 mph - N/A   Clear
9:51 PM 16.0 °F 5.3 °F -11.9 °F 28% 30.18 in 10.0 mi SSW 8.1 mph - N/A   Clear
10:51 PM 17.1 °F 4.3 °F -11.0 °F 28% 30.13 in 10.0 mi SSW 11.5 mph - N/A   Clear
11:51 PM 19.0 °F 5.0 °F -9.9 °F 27% 30.08 in 10.0 mi SSW 15.0 mph - N/A   Clear